BANGABANDHUSAT-1 (43463 NORAD) Tracking and Keplerian Element Data

This shows tracking and keplerian element data for the satellite.

Feedback or suggestion? Click here.




ElementValue
Catalog43463
NameBANGABANDHUSAT-1
Epoch Orbit346
Epoch Day106.80896733
Epoch Year2019
RAAN210.0799
Inclination0.0179
Eccentricity0.000274
Argument of Perigee189.5909
Mean Anonmoly215.2983
Mean Motion1.00266747
Decay Rate-3.84E-06
L11 43463U 18044A 19106.80896733 -.00000384 00000-0 00000-0 0 9994
L22 43463 0.0179 210.0799 0002740 189.5909 215.2983 1.00266747 3467

Live tracking and technical data element details for BANGABANDHUSAT-1 (NORAD 43463). BANGABANDHUSAT-1 can be tracked NOW for your location showing map with azimuth and elevation plus other details from your city location.

Track the satellite on the map from your city or location and see movement details for azimuth, elevation, latitude, longitude, range, height, and movement on the map or in text.







IsCatalogInMostPopularTable: catalog: 43463, numindb: 157
Update: records affected: 1



GetName: 43463 BANGABANDHUSAT-1

Hit Count: updated at: Fri, 19 Apr 2019 20:13:42 GMT